Time,TemperatureF,DewpointF,PressureIn,WindDirection,WindDirectionDegrees,WindSpeedMPH,WindSpeedGustMPH,Humidity,HourlyPrecipIn,Conditions,Clouds,dailyrainin,SoftwareType,DateUTC
2013-01-22 00:03:00,26.3,24.3,29.91,NNW,338,0.0,0.9,92,0.00,,,0.00,WUHU216HW,2013-01-22 08:03:00,
2013-01-22 00:08:00,26.1,24.1,29.91,NW,315,0.9,0.9,92,0.00,,,0.00,WUHU216HW,2013-01-22 08:08:00,
2013-01-22 00:13:00,25.9,24.0,29.90,North,0,0.7,0.9,92,0.00,,,0.00,WUHU216HW,2013-01-22 08:13:00,
2013-01-22 00:18:00,25.9,24.0,29.91,West,270,0.0,0.9,92,0.00,,,0.00,WUHU216HW,2013-01-22 08:18:00,
2013-01-22 00:23:00,26.1,24.1,29.91,NW,315,0.0,0.7,92,0.00,,,0.00,WUHU216HW,2013-01-22 08:23:00,
2013-01-22 00:28:00,26.3,24.3,29.90,NNW,338,0.2,0.7,92,0.00,,,0.00,WUHU216HW,2013-01-22 08:28:00,
2013-01-22 00:33:00,26.3,24.3,29.91,WSW,248,0.7,1.1,92,0.00,,,0.00,WUHU216HW,2013-01-22 08:33:00,
2013-01-22 00:38:00,26.3,24.3,29.90,North,0,0.2,1.1,92,0.00,,,0.00,WUHU216HW,2013-01-22 08:38:00,
2013-01-22 00:43:00,26.3,24.3,29.91,NNW,338,0.9,0.9,92,0.00,,,0.00,WUHU216HW,2013-01-22 08:43:00,
2013-01-22 00:48:00,26.1,24.1,29.90,SSE,158,0.0,0.9,92,0.00,,,0.00,WUHU216HW,2013-01-22 08:48:00,
2013-01-22 00:53:00,26.1,24.1,29.90,WSW,248,0.4,0.9,92,0.00,,,0.00,WUHU216HW,2013-01-22 08:53:00,
2013-01-22 00:58:00,26.3,24.3,29.90,WNW,293,0.4,0.9,92,0.00,,,0.00,WUHU216HW,2013-01-22 08:58:00,
2013-01-22 01:03:00,26.1,24.1,29.90,WNW,293,0.0,0.9,92,0.00,,,0.00,WUHU216HW,2013-01-22 09:03:00,
2013-01-22 01:08:00,25.9,24.0,29.90,ESE,113,0.0,1.6,92,0.00,,,0.00,WUHU216HW,2013-01-22 09:08:00,
2013-01-22 01:13:00,25.7,23.8,29.90,WSW,248,0.0,1.8,92,0.00,,,0.00,WUHU216HW,2013-01-22 09:13:00,
2013-01-22 01:18:00,25.7,23.8,29.90,SSE,158,0.7,1.8,92,0.00,,,0.00,WUHU216HW,2013-01-22 09:18:00,
2013-01-22 01:23:00,26.1,24.1,29.89,SE,135,4.7,4.7,92,0.00,,,0.00,WUHU216HW,2013-01-22 09:23:00,
2013-01-22 01:28:00,26.8,25.0,29.89,SE,135,7.6,8.7,93,0.00,,,0.00,WUHU216HW,2013-01-22 09:28:00,
2013-01-22 01:33:00,27.5,26.0,29.89,SSE,158,4.9,8.7,94,0.00,,,0.00,WUHU216HW,2013-01-22 09:33:00,
2013-01-22 01:38:00,27.9,26.4,29.89,ESE,113,5.4,7.6,94,0.00,,,0.00,WUHU216HW,2013-01-22 09:38:00,
2013-01-22 01:43:00,28.3,26.7,29.89,SE,135,4.5,6.3,94,0.00,,,0.00,WUHU216HW,2013-01-22 09:43:00,
2013-01-22 01:48:00,28.6,27.1,29.89,SE,135,6.9,8.5,94,0.00,,,0.00,WUHU216HW,2013-01-22 09:48:00,
2013-01-22 01:53:00,28.8,27.3,29.89,SE,135,6.5,8.5,94,0.00,,,0.00,WUHU216HW,2013-01-22 09:53:00,
2013-01-22 01:58:00,29.2,27.4,29.89,ESE,113,2.5,7.6,93,0.00,,,0.00,WUHU216HW,2013-01-22 09:58:00,
2013-01-22 02:03:00,29.2,27.4,29.89,SE,135,2.5,6.7,93,0.00,,,0.00,WUHU216HW,2013-01-22 10:03:00,
2013-01-22 02:08:00,29.2,27.4,29.89,SE,135,1.6,6.7,93,0.00,,,0.00,WUHU216HW,2013-01-22 10:08:00,
2013-01-22 02:13:00,29.2,27.4,29.90,SE,135,2.0,2.5,93,0.00,,,0.00,WUHU216HW,2013-01-22 10:13:00,
2013-01-22 02:18:00,29.0,27.2,29.89,ESE,113,1.1,3.4,93,0.00,,,0.00,WUHU216HW,2013-01-22 10:18:00,
2013-01-22 02:23:00,28.8,26.8,29.88,SW,225,0.0,3.4,92,0.00,,,0.00,WUHU216HW,2013-01-22 10:23:00,
2013-01-22 02:28:00,28.6,26.7,29.89,SSE,158,1.1,2.2,92,0.00,,,0.00,WUHU216HW,2013-01-22 10:28:00,
2013-01-22 02:33:00,28.4,26.5,29.89,WNW,293,0.0,2.2,92,0.00,,,0.00,WUHU216HW,2013-01-22 10:33:00,
2013-01-22 02:38:00,28.3,26.3,29.89,SSW,203,0.9,1.1,92,0.00,,,0.00,WUHU216HW,2013-01-22 10:38:00,
2013-01-22 02:43:00,27.9,25.9,29.89,North,0,0.0,1.1,92,0.00,,,0.00,WUHU216HW,2013-01-22 10:43:00,
2013-01-22 02:48:00,27.7,25.8,29.89,NNE,23,0.2,1.8,92,0.00,,,0.00,WUHU216HW,2013-01-22 10:48:00,
2013-01-22 02:53:00,27.4,25.4,29.89,North,0,0.2,1.8,92,0.00,,,0.00,WUHU216HW,2013-01-22 10:53:00,
2013-01-22 02:58:00,27.2,25.2,29.89,NW,315,0.7,1.3,92,0.00,,,0.00,WUHU216HW,2013-01-22 10:58:00,
2013-01-22 03:03:00,27.0,24.8,29.88,NW,315,0.7,1.1,91,0.00,,,0.00,WUHU216HW,2013-01-22 11:03:00,
2013-01-22 03:08:00,26.5,24.2,29.89,NNW,338,0.4,1.8,91,0.00,,,0.00,WUHU216HW,2013-01-22 11:08:00,
2013-01-22 03:13:00,26.3,24.3,29.88,NW,315,2.0,2.0,92,0.00,,,0.00,WUHU216HW,2013-01-22 11:13:00,
2013-01-22 03:18:00,25.9,23.7,29.89,NNW,338,1.1,2.5,91,0.00,,,0.00,WUHU216HW,2013-01-22 11:18:00,
2013-01-22 03:23:00,25.6,23.6,29.88,WNW,293,1.1,2.5,92,0.00,,,0.00,WUHU216HW,2013-01-22 11:23:00,
2013-01-22 03:28:00,25.6,23.3,29.88,NW,315,0.4,1.1,91,0.00,,,0.00,WUHU216HW,2013-01-22 11:28:00,
2013-01-22 03:33:00,25.6,23.3,29.88,West,270,0.7,1.1,91,0.00,,,0.00,WUHU216HW,2013-01-22 11:33:00,
2013-01-22 03:38:00,25.4,23.1,29.88,West,270,0.0,0.9,91,0.00,,,0.00,WUHU216HW,2013-01-22 11:38:00,
2013-01-22 03:43:00,25.4,23.1,29.88,NNW,338,0.2,0.7,91,0.00,,,0.00,WUHU216HW,2013-01-22 11:43:00,
2013-01-22 03:48:00,25.2,23.0,29.88,NNE,23,1.1,1.3,91,0.00,,,0.00,WUHU216HW,2013-01-22 11:48:00,
2013-01-22 03:53:00,25.0,22.8,29.88,NE,45,0.4,1.3,91,0.00,,,0.00,WUHU216HW,2013-01-22 11:53:00,
2013-01-22 03:58:00,25.0,22.8,29.88,WSW,248,0.4,1.3,91,0.00,,,0.00,WUHU216HW,2013-01-22 11:58:00,
2013-01-22 04:03:00,25.0,22.8,29.87,SE,135,0.4,1.1,91,0.00,,,0.00,WUHU216HW,2013-01-22 12:03:00,
2013-01-22 04:08:00,25.6,23.6,29.88,South,180,4.0,4.0,92,0.00,,,0.00,WUHU216HW,2013-01-22 12:08:00,
2013-01-22 04:13:00,26.3,24.3,29.87,ESE,113,3.8,6.3,92,0.00,,,0.00,WUHU216HW,2013-01-22 12:13:00,
2013-01-22 04:18:00,26.8,25.0,29.87,SE,135,6.3,6.9,93,0.00,,,0.00,WUHU216HW,2013-01-22 12:18:00,
2013-01-22 04:23:00,27.0,25.2,29.87,SE,135,7.4,7.4,93,0.00,,,0.00,WUHU216HW,2013-01-22 12:23:00,
2013-01-22 04:28:00,27.2,25.4,29.87,SE,135,6.3,7.4,93,0.00,,,0.00,WUHU216HW,2013-01-22 12:28:00,
2013-01-22 04:33:00,27.4,25.6,29.87,SE,135,5.6,7.4,93,0.00,,,0.00,WUHU216HW,2013-01-22 12:33:00,
2013-01-22 04:38:00,27.4,25.6,29.86,SE,135,5.4,6.3,93,0.00,,,0.00,WUHU216HW,2013-01-22 12:38:00,
2013-01-22 04:43:00,27.4,25.6,29.87,South,180,1.6,5.6,93,0.00,,,0.00,WUHU216HW,2013-01-22 12:43:00,
2013-01-22 04:48:00,27.2,25.4,29.87,SE,135,1.6,5.4,93,0.00,,,0.00,WUHU216HW,2013-01-22 12:48:00,
2013-01-22 04:53:00,27.0,25.2,29.86,ESE,113,2.0,2.2,93,0.00,,,0.00,WUHU216HW,2013-01-22 12:53:00,
2013-01-22 04:58:00,27.0,25.0,29.86,South,180,1.8,2.2,92,0.00,,,0.00,WUHU216HW,2013-01-22 12:58:00,
2013-01-22 05:04:00,27.0,24.8,29.86,SSE,158,0.9,2.0,91,0.00,,,0.00,WUHU216HW,2013-01-22 13:04:00,
2013-01-22 05:09:00,26.8,24.6,29.86,SE,135,2.5,2.5,91,0.00,,,0.00,WUHU216HW,2013-01-22 13:09:00,
2013-01-22 05:14:00,26.6,24.4,29.86,SE,135,4.0,4.0,91,0.00,,,0.00,WUHU216HW,2013-01-22 13:14:00,
2013-01-22 05:19:00,26.6,24.7,29.85,SSE,158,4.7,5.4,92,0.00,,,0.00,WUHU216HW,2013-01-22 13:19:00,
2013-01-22 05:24:00,26.8,24.9,29.86,SE,135,2.9,5.4,92,0.00,,,0.00,WUHU216HW,2013-01-22 13:24:00,
2013-01-22 05:29:00,27.0,25.0,29.86,SE,135,5.1,5.4,92,0.00,,,0.00,WUHU216HW,2013-01-22 13:29:00,
2013-01-22 05:34:00,27.0,25.0,29.85,SE,135,4.3,6.0,92,0.00,,,0.00,WUHU216HW,2013-01-22 13:34:00,
2013-01-22 05:39:00,27.0,25.0,29.86,SSE,158,2.7,6.0,92,0.00,,,0.00,WUHU216HW,2013-01-22 13:39:00,
2013-01-22 05:44:00,27.0,25.0,29.85,SSE,158,2.2,4.3,92,0.00,,,0.00,WUHU216HW,2013-01-22 13:44:00,
2013-01-22 05:49:00,27.0,25.0,29.85,SSE,158,2.0,2.7,92,0.00,,,0.00,WUHU216HW,2013-01-22 13:49:00,
2013-01-22 05:54:00,26.8,24.6,29.86,SSW,203,2.5,3.1,91,0.00,,,0.00,WUHU216HW,2013-01-22 13:54:00,
2013-01-22 05:59:00,26.8,24.6,29.85,SSE,158,2.9,3.6,91,0.00,,,0.00,WUHU216HW,2013-01-22 13:59:00,
2013-01-22 06:04:00,26.8,24.9,29.85,South,180,2.5,4.3,92,0.00,,,0.00,WUHU216HW,2013-01-22 14:04:00,
2013-01-22 06:09:00,26.8,24.9,29.85,SSE,158,4.5,4.5,92,0.00,,,0.00,WUHU216HW,2013-01-22 14:09:00,
2013-01-22 06:14:00,26.8,24.9,29.85,SSE,158,2.2,4.5,92,0.00,,,0.00,WUHU216HW,2013-01-22 14:14:00,
2013-01-22 06:19:00,26.8,24.9,29.85,WSW,248,1.1,4.5,92,0.00,,,0.00,WUHU216HW,2013-01-22 14:19:00,
2013-01-22 06:24:00,26.5,24.2,29.85,WSW,248,1.1,2.2,91,0.00,,,0.00,WUHU216HW,2013-01-22 14:24:00,
2013-01-22 06:29:00,26.1,23.9,29.85,WSW,248,0.0,1.6,91,0.00,,,0.00,WUHU216HW,2013-01-22 14:29:00,
2013-01-22 06:34:00,25.9,23.7,29.85,West,270,0.0,1.3,91,0.00,,,0.00,WUHU216HW,2013-01-22 14:34:00,
2013-01-22 06:39:00,25.4,23.1,29.85,NW,315,0.0,0.9,91,0.00,,,0.00,WUHU216HW,2013-01-22 14:39:00,
2013-01-22 06:44:00,25.2,23.0,29.85,WSW,248,0.0,0.0,91,0.00,,,0.00,WUHU216HW,2013-01-22 14:44:00,
2013-01-22 06:49:00,25.4,23.1,29.85,SE,135,0.7,0.7,91,0.00,,,0.00,WUHU216HW,2013-01-22 14:49:00,
2013-01-22 06:54:00,25.4,23.1,29.85,SE,135,1.1,1.1,91,0.00,,,0.00,WUHU216HW,2013-01-22 14:54:00,
2013-01-22 06:59:00,25.6,23.3,29.85,SSW,203,1.1,1.3,91,0.00,,,0.00,WUHU216HW,2013-01-22 14:59:00,
2013-01-22 07:04:00,25.6,23.3,29.85,South,180,1.1,1.3,91,0.00,,,0.00,WUHU216HW,2013-01-22 15:04:00,
2013-01-22 07:09:00,25.7,23.8,29.85,SE,135,0.4,1.3,92,0.00,,,0.00,WUHU216HW,2013-01-22 15:09:00,
2013-01-22 07:14:00,25.7,23.5,29.85,SE,135,0.9,1.3,91,0.00,,,0.00,WUHU216HW,2013-01-22 15:14:00,
2013-01-22 07:19:00,25.7,23.5,29.85,SSE,158,0.4,1.3,91,0.00,,,0.00,WUHU216HW,2013-01-22 15:19:00,
2013-01-22 07:24:00,25.9,23.7,29.85,SSE,158,0.4,1.1,91,0.00,,,0.00,WUHU216HW,2013-01-22 15:24:00,
2013-01-22 07:29:00,25.9,24.0,29.85,SW,225,0.4,0.9,92,0.00,,,0.00,WUHU216HW,2013-01-22 15:29:00,
2013-01-22 07:34:00,25.9,24.0,29.85,West,270,0.0,0.9,92,0.00,,,0.00,WUHU216HW,2013-01-22 15:34:00,
2013-01-22 07:39:00,25.7,23.5,29.85,WSW,248,0.4,0.9,91,0.00,,,0.00,WUHU216HW,2013-01-22 15:39:00,
2013-01-22 07:44:00,25.6,23.3,29.85,WSW,248,0.0,0.4,91,0.00,,,0.00,WUHU216HW,2013-01-22 15:44:00,
2013-01-22 07:49:00,25.2,23.2,29.84,WSW,248,0.2,0.7,92,0.00,,,0.00,WUHU216HW,2013-01-22 15:49:00,
2013-01-22 07:54:00,25.0,22.8,29.84,ESE,113,1.8,1.8,91,0.00,,,0.00,WUHU216HW,2013-01-22 15:54:00,
2013-01-22 07:59:00,25.0,22.8,29.85,SSE,158,3.4,4.0,91,0.00,,,0.00,WUHU216HW,2013-01-22 15:59:00,
2013-01-22 08:04:00,25.2,23.2,29.84,SSE,158,4.7,5.4,92,0.00,,,0.00,WUHU216HW,2013-01-22 16:04:00,
2013-01-22 08:09:00,25.6,23.6,29.85,SSE,158,3.6,5.4,92,0.00,,,0.00,WUHU216HW,2013-01-22 16:09:00,
2013-01-22 08:14:00,25.9,24.0,29.85,SSE,158,3.4,5.1,92,0.00,,,0.00,WUHU216HW,2013-01-22 16:14:00,
2013-01-22 08:19:00,26.1,24.1,29.85,SE,135,3.6,4.7,92,0.00,,,0.00,WUHU216HW,2013-01-22 16:19:00,
2013-01-22 08:24:00,26.3,24.3,29.85,SSE,158,2.5,4.7,92,0.00,,,0.00,WUHU216HW,2013-01-22 16:24:00,
2013-01-22 08:29:00,26.6,24.7,29.85,SSE,158,2.5,4.7,92,0.00,,,0.00,WUHU216HW,2013-01-22 16:29:00,
2013-01-22 08:34:00,27.0,25.0,29.84,SW,225,0.4,3.4,92,0.00,,,0.00,WUHU216HW,2013-01-22 16:34:00,
2013-01-22 08:39:00,27.0,25.2,29.84,South,180,3.1,3.4,93,0.00,,,0.00,WUHU216HW,2013-01-22 16:39:00,
2013-01-22 08:44:00,27.0,25.2,29.84,SSE,158,4.9,5.4,93,0.00,,,0.00,WUHU216HW,2013-01-22 16:44:00,
2013-01-22 08:49:00,27.2,25.4,29.83,SE,135,4.9,5.4,93,0.00,,,0.00,WUHU216HW,2013-01-22 16:49:00,
2013-01-22 08:54:00,27.4,25.6,29.83,SSE,158,5.4,6.3,93,0.00,,,0.00,WUHU216HW,2013-01-22 16:54:00,
2013-01-22 08:59:00,27.5,25.7,29.84,SE,135,5.4,6.3,93,0.00,,,0.00,WUHU216HW,2013-01-22 16:59:00,
2013-01-22 09:04:00,27.7,25.9,29.84,SSE,158,5.1,5.8,93,0.00,,,0.00,WUHU216HW,2013-01-22 17:04:00,
2013-01-22 09:09:00,27.9,26.1,29.83,SSE,158,5.8,6.7,93,0.00,,,0.00,WUHU216HW,2013-01-22 17:09:00,
2013-01-22 09:14:00,28.1,26.3,29.83,SE,135,5.4,6.9,93,0.00,,,0.00,WUHU216HW,2013-01-22 17:14:00,
2013-01-22 09:19:00,28.4,26.6,29.83,SE,135,6.9,7.6,93,0.00,,,0.00,WUHU216HW,2013-01-22 17:19:00,
2013-01-22 09:24:00,28.6,26.8,29.84,SSE,158,6.9,8.3,93,0.00,,,0.00,WUHU216HW,2013-01-22 17:24:00,
2013-01-22 09:29:00,29.0,27.2,29.85,SE,135,5.6,8.3,93,0.00,,,0.00,WUHU216HW,2013-01-22 17:29:00,
2013-01-22 09:34:00,29.2,27.4,29.84,SE,135,4.3,7.8,93,0.00,,,0.00,WUHU216HW,2013-01-22 17:34:00,
2013-01-22 09:39:00,29.3,27.5,29.84,SE,135,4.9,6.3,93,0.00,,,0.00,WUHU216HW,2013-01-22 17:39:00,
2013-01-22 09:44:00,29.5,27.7,29.84,SE,135,4.5,5.8,93,0.00,,,0.00,WUHU216HW,2013-01-22 17:44:00,
2013-01-22 09:49:00,29.9,27.9,29.85,SE,135,6.0,6.0,92,0.00,,,0.00,WUHU216HW,2013-01-22 17:49:00,
2013-01-22 09:54:00,30.1,28.1,29.85,ESE,113,5.4,6.0,92,0.00,,,0.00,WUHU216HW,2013-01-22 17:54:00,
2013-01-22 09:59:00,30.2,28.3,29.85,SE,135,5.1,5.6,92,0.00,,,0.00,WUHU216HW,2013-01-22 17:59:00,
2013-01-22 10:04:00,30.6,28.6,29.85,SE,135,4.7,5.4,92,0.00,,,0.00,WUHU216HW,2013-01-22 18:04:00,
2013-01-22 10:09:00,30.6,28.4,29.85,SE,135,5.1,6.0,91,0.00,,,0.00,WUHU216HW,2013-01-22 18:09:00,
2013-01-22 10:14:00,30.8,28.5,29.85,SE,135,5.1,6.0,91,0.00,,,0.00,WUHU216HW,2013-01-22 18:14:00,
2013-01-22 10:19:00,31.0,28.7,29.85,ESE,113,5.4,5.6,91,0.00,,,0.00,WUHU216HW,2013-01-22 18:19:00,
2013-01-22 10:24:00,31.1,28.9,29.85,SE,135,4.9,5.6,91,0.00,,,0.00,WUHU216HW,2013-01-22 18:24:00,
2013-01-22 10:29:00,31.3,29.1,29.85,SE,135,4.0,5.6,91,0.00,,,0.00,WUHU216HW,2013-01-22 18:29:00,
2013-01-22 10:34:00,31.5,29.3,29.85,SE,135,3.6,5.6,91,0.00,,,0.00,WUHU216HW,2013-01-22 18:34:00,
2013-01-22 10:39:00,31.5,29.3,29.85,SE,135,4.9,4.9,91,0.00,,,0.00,WUHU216HW,2013-01-22 18:39:00,
2013-01-22 10:44:00,31.9,29.6,29.85,SE,135,4.3,5.6,91,0.00,,,0.00,WUHU216HW,2013-01-22 18:44:00,
2013-01-22 10:49:00,31.9,29.6,29.85,SE,135,3.8,5.6,91,0.00,,,0.00,WUHU216HW,2013-01-22 18:49:00,
2013-01-22 10:54:00,32.0,29.8,29.85,SE,135,4.7,5.8,91,0.00,,,0.00,WUHU216HW,2013-01-22 18:54:00,
2013-01-22 10:59:00,32.0,29.8,29.85,SE,135,4.9,5.8,91,0.00,,,0.00,WUHU216HW,2013-01-22 18:59:00,
2013-01-22 11:04:00,32.2,30.2,29.85,SE,135,5.1,5.8,92,0.00,,,0.00,WUHU216HW,2013-01-22 19:04:00,
2013-01-22 11:09:00,32.2,30.2,29.85,SE,135,6.3,6.7,92,0.00,,,0.00,WUHU216HW,2013-01-22 19:09:00,
2013-01-22 11:14:00,32.2,30.2,29.85,SE,135,6.5,7.2,92,0.00,,,0.00,WUHU216HW,2013-01-22 19:14:00,
2013-01-22 11:19:00,32.4,30.3,29.85,SE,135,6.7,7.2,92,0.00,,,0.00,WUHU216HW,2013-01-22 19:19:00,
2013-01-22 11:24:00,32.6,30.2,29.84,SE,135,6.0,7.6,91,0.00,,,0.00,WUHU216HW,2013-01-22 19:24:00,
2013-01-22 11:29:00,32.8,30.4,29.84,SE,135,6.9,9.2,91,0.00,,,0.00,WUHU216HW,2013-01-22 19:29:00,
2013-01-22 11:34:00,32.9,30.3,29.83,SE,135,7.6,9.2,90,0.00,,,0.00,WUHU216HW,2013-01-22 19:34:00,
2013-01-22 11:39:00,33.1,30.5,29.83,SE,135,6.7,8.5,90,0.00,,,0.00,WUHU216HW,2013-01-22 19:39:00,
2013-01-22 11:44:00,33.3,30.3,29.83,SE,135,6.3,8.5,89,0.00,,,0.00,WUHU216HW,2013-01-22 19:44:00,
2013-01-22 11:49:00,33.5,30.5,29.82,SE,135,5.8,8.5,89,0.00,,,0.00,WUHU216HW,2013-01-22 19:49:00,
2013-01-22 11:54:00,33.5,30.5,29.82,SE,135,4.0,6.7,89,0.00,,,0.00,WUHU216HW,2013-01-22 19:54:00,
2013-01-22 11:59:00,33.7,30.7,29.82,SE,135,5.6,6.9,89,0.00,,,0.00,WUHU216HW,2013-01-22 19:59:00,
2013-01-22 12:04:00,33.8,30.9,29.82,SE,135,5.1,6.9,89,0.00,,,0.00,WUHU216HW,2013-01-22 20:04:00,
2013-01-22 12:09:00,33.8,30.9,29.82,SE,135,7.4,7.8,89,0.00,,,0.00,WUHU216HW,2013-01-22 20:09:00,
2013-01-22 12:14:00,34.0,31.1,29.81,SE,135,7.4,8.1,89,0.00,,,0.00,WUHU216HW,2013-01-22 20:14:00,
2013-01-22 12:19:00,34.2,31.2,29.81,SE,135,6.3,8.1,89,0.00,,,0.00,WUHU216HW,2013-01-22 20:19:00,
2013-01-22 12:24:00,34.2,31.2,29.81,SE,135,6.0,7.4,89,0.00,,,0.00,WUHU216HW,2013-01-22 20:24:00,
2013-01-22 12:29:00,34.4,31.4,29.81,SE,135,6.3,6.9,89,0.00,,,0.00,WUHU216HW,2013-01-22 20:29:00,
2013-01-22 12:34:00,34.6,31.6,29.81,SE,135,6.9,6.9,89,0.00,,,0.00,WUHU216HW,2013-01-22 20:34:00,
2013-01-22 12:39:00,34.6,31.6,29.81,SE,135,6.3,6.9,89,0.00,,,0.00,WUHU216HW,2013-01-22 20:39:00,
2013-01-22 12:44:00,34.7,31.8,29.81,SE,135,6.9,7.6,89,0.00,,,0.00,WUHU216HW,2013-01-22 20:44:00,
2013-01-22 12:49:00,34.9,32.0,29.80,SE,135,6.9,8.5,89,0.00,,,0.00,WUHU216HW,2013-01-22 20:49:00,
2013-01-22 12:54:00,34.9,31.7,29.80,SE,135,7.6,8.5,88,0.00,,,0.00,WUHU216HW,2013-01-22 20:54:00,
2013-01-22 12:59:00,35.3,32.1,29.80,ESE,113,7.2,8.5,88,0.00,,,0.00,WUHU216HW,2013-01-22 20:59:00,
2013-01-22 13:04:00,35.5,32.2,29.80,SE,135,4.5,7.8,88,0.00,,,0.00,WUHU216HW,2013-01-22 21:04:00,
2013-01-22 13:09:00,35.8,32.6,29.80,SSE,158,7.6,7.6,88,0.00,,,0.00,WUHU216HW,2013-01-22 21:09:00,
2013-01-22 13:14:00,36.4,33.1,29.79,SE,135,5.4,8.5,88,0.00,,,0.00,WUHU216HW,2013-01-22 21:14:00,
2013-01-22 13:19:00,36.7,33.1,29.79,SE,135,7.8,8.9,87,0.00,,,0.00,WUHU216HW,2013-01-22 21:19:00,
2013-01-22 13:24:00,37.1,33.9,29.79,SE,135,8.1,8.9,88,0.00,,,0.00,WUHU216HW,2013-01-22 21:24:00,
2013-01-22 13:29:00,37.6,34.0,29.79,ESE,113,6.7,9.2,87,0.00,,,0.00,WUHU216HW,2013-01-22 21:29:00,
2013-01-22 13:31:00,37.8,34.2,29.78,SE,135,6.0,9.2,87,0.00,,,0.00,WUHU216HW,2013-01-22 21:31:00,
2013-01-22 13:36:00,38.0,34.4,29.78,SE,135,7.2,9.2,87,0.00,,,0.00,WUHU216HW,2013-01-22 21:36:00,
2013-01-22 13:41:00,38.2,34.6,29.78,SE,135,4.7,8.3,87,0.00,,,0.00,WUHU216HW,2013-01-22 21:41:00,
2013-01-22 13:47:00,38.2,34.6,29.77,SE,135,5.8,7.2,87,0.00,,,0.00,WUHU216HW,2013-01-22 21:47:00,
2013-01-22 13:52:00,38.2,34.6,29.77,SE,135,6.3,6.9,87,0.00,,,0.00,WUHU216HW,2013-01-22 21:52:00,
2013-01-22 13:57:00,38.0,34.4,29.77,SE,135,4.9,7.6,87,0.00,,,0.00,WUHU216HW,2013-01-22 21:57:00,
2013-01-22 14:02:00,38.0,34.8,29.77,SE,135,6.9,7.6,88,0.00,,,0.00,WUHU216HW,2013-01-22 22:02:00,
2013-01-22 14:07:00,38.0,34.8,29.77,SE,135,7.8,8.9,88,0.00,,,0.00,WUHU216HW,2013-01-22 22:07:00,
2013-01-22 14:12:00,37.8,34.2,29.77,SSE,158,6.0,8.9,87,0.00,,,0.00,WUHU216HW,2013-01-22 22:12:00,
2013-01-22 14:17:00,38.0,34.8,29.77,South,180,3.4,8.7,88,0.00,,,0.00,WUHU216HW,2013-01-22 22:17:00,
2013-01-22 14:22:00,38.0,34.8,29.77,South,180,0.4,5.8,88,0.00,,,0.00,WUHU216HW,2013-01-22 22:22:00,
2013-01-22 14:27:00,38.0,34.4,29.77,SSE,158,2.2,3.4,87,0.00,,,0.00,WUHU216HW,2013-01-22 22:27:00,
2013-01-22 14:32:00,38.2,34.6,29.77,SSE,158,4.7,5.1,87,0.00,,,0.00,WUHU216HW,2013-01-22 22:32:00,
2013-01-22 14:37:00,38.2,34.6,29.77,SSE,158,5.4,5.4,87,0.00,,,0.00,WUHU216HW,2013-01-22 22:37:00,
2013-01-22 14:42:00,38.2,34.6,29.77,SSE,158,2.0,5.4,87,0.00,,,0.00,WUHU216HW,2013-01-22 22:42:00,
2013-01-22 14:47:00,38.5,34.9,29.76,South,180,4.3,5.4,87,0.00,,,0.00,WUHU216HW,2013-01-22 22:47:00,
2013-01-22 14:52:00,39.2,35.6,29.76,SSE,158,2.0,5.8,87,0.00,,,0.00,WUHU216HW,2013-01-22 22:52:00,
2013-01-22 14:57:00,39.6,36.0,29.76,SSW,203,1.6,5.8,87,0.00,,,0.00,WUHU216HW,2013-01-22 22:57:00,
2013-01-22 15:02:00,39.8,36.2,29.76,SW,225,1.1,2.9,87,0.00,,,0.00,WUHU216HW,2013-01-22 23:02:00,
2013-01-22 15:07:00,39.6,36.0,29.76,SSW,203,1.1,1.8,87,0.00,,,0.00,WUHU216HW,2013-01-22 23:07:00,
2013-01-22 15:12:00,39.6,36.0,29.76,SSE,158,3.8,4.0,87,0.00,,,0.00,WUHU216HW,2013-01-22 23:12:00,
2013-01-22 15:17:00,39.6,36.0,29.75,SSE,158,4.7,5.6,87,0.00,,,0.00,WUHU216HW,2013-01-22 23:17:00,
2013-01-22 15:23:00,39.4,35.8,29.76,SE,135,4.7,6.3,87,0.00,,,0.00,WUHU216HW,2013-01-22 23:23:00,
2013-01-22 15:28:00,39.2,35.6,29.76,SSE,158,3.4,6.3,87,0.00,,,0.00,WUHU216HW,2013-01-22 23:28:00,
2013-01-22 15:33:00,39.2,35.6,29.75,South,180,3.8,5.4,87,0.00,,,0.00,WUHU216HW,2013-01-22 23:33:00,
2013-01-22 15:38:00,39.1,35.5,29.75,SSE,158,4.3,4.3,87,0.00,,,0.00,WUHU216HW,2013-01-22 23:38:00,
2013-01-22 15:43:00,38.9,35.0,29.76,SSE,158,3.8,4.7,86,0.00,,,0.00,WUHU216HW,2013-01-22 23:43:00,
2013-01-22 15:48:00,38.7,35.1,29.76,South,180,4.9,5.4,87,0.00,,,0.00,WUHU216HW,2013-01-22 23:48:00,
2013-01-22 15:53:00,38.7,35.1,29.76,South,180,4.3,5.4,87,0.00,,,0.00,WUHU216HW,2013-01-22 23:53:00,
2013-01-22 15:58:00,38.5,34.9,29.76,South,180,2.9,5.6,87,0.00,,,0.00,WUHU216HW,2013-01-22 23:58:00,
2013-01-22 16:03:00,38.3,34.7,29.75,SSE,158,3.1,5.6,87,0.00,,,0.00,WUHU216HW,2013-01-23 00:03:00,
2013-01-22 16:08:00,38.3,34.7,29.75,SSE,158,4.5,4.5,87,0.00,,,0.00,WUHU216HW,2013-01-23 00:08:00,
2013-01-22 16:13:00,38.2,34.6,29.75,SSE,158,4.7,5.4,87,0.00,,,0.00,WUHU216HW,2013-01-23 00:13:00,
2013-01-22 16:18:00,38.2,34.6,29.75,SW,225,1.8,5.4,87,0.00,,,0.00,WUHU216HW,2013-01-23 00:18:00,
2013-01-22 16:23:00,37.8,34.2,29.74,SSE,158,4.7,4.7,87,0.00,,,0.00,WUHU216HW,2013-01-23 00:23:00,
2013-01-22 16:28:00,37.8,34.2,29.74,SSE,158,5.4,5.4,87,0.00,,,0.00,WUHU216HW,2013-01-23 00:28:00,
2013-01-22 16:33:00,37.8,34.2,29.74,SE,135,5.8,6.7,87,0.00,,,0.00,WUHU216HW,2013-01-23 00:33:00,
2013-01-22 16:38:00,37.4,33.8,29.74,SE,135,5.6,7.2,87,0.00,,,0.00,WUHU216HW,2013-01-23 00:38:00,
2013-01-22 16:43:00,37.3,33.7,29.74,SSE,158,5.4,7.2,87,0.00,,,0.00,WUHU216HW,2013-01-23 00:43:00,
2013-01-22 16:48:00,37.1,33.5,29.74,SSE,158,5.4,6.3,87,0.00,,,0.00,WUHU216HW,2013-01-23 00:48:00,
2013-01-22 16:53:00,36.9,33.3,29.74,SSE,158,5.1,6.9,87,0.00,,,0.00,WUHU216HW,2013-01-23 00:53:00,
2013-01-22 16:58:00,36.7,33.1,29.74,SSE,158,4.7,6.9,87,0.00,,,0.00,WUHU216HW,2013-01-23 00:58:00,
2013-01-22 17:03:00,36.7,33.1,29.73,SSE,158,5.4,6.5,87,0.00,,,0.00,WUHU216HW,2013-01-23 01:03:00,
2013-01-22 17:08:00,36.7,33.1,29.74,South,180,4.7,6.5,87,0.00,,,0.00,WUHU216HW,2013-01-23 01:08:00,
2013-01-22 17:13:00,36.7,33.1,29.74,SSE,158,4.5,6.3,87,0.00,,,0.00,WUHU216HW,2013-01-23 01:13:00,
2013-01-22 17:18:00,36.5,32.9,29.73,SSW,203,2.9,5.4,87,0.00,,,0.00,WUHU216HW,2013-01-23 01:18:00,
2013-01-22 17:23:00,36.4,32.8,29.73,South,180,3.6,4.7,87,0.00,,,0.00,WUHU216HW,2013-01-23 01:23:00,
2013-01-22 17:28:00,36.4,32.8,29.73,SSE,158,3.8,4.0,87,0.00,,,0.00,WUHU216HW,2013-01-23 01:28:00,
2013-01-22 17:33:00,36.0,32.4,29.73,SSE,158,4.9,5.4,87,0.00,,,0.00,WUHU216HW,2013-01-23 01:33:00,
2013-01-22 17:38:00,35.8,32.2,29.72,SSE,158,4.3,5.6,87,0.00,,,0.00,WUHU216HW,2013-01-23 01:38:00,
2013-01-22 17:43:00,35.6,32.0,29.73,South,180,4.0,5.6,87,0.00,,,0.00,WUHU216HW,2013-01-23 01:43:00,
2013-01-22 17:48:00,35.6,32.0,29.73,SSW,203,3.4,5.1,87,0.00,,,0.00,WUHU216HW,2013-01-23 01:48:00,
2013-01-22 17:53:00,35.6,32.0,29.72,SSE,158,4.7,5.8,87,0.00,,,0.00,WUHU216HW,2013-01-23 01:53:00,
2013-01-22 17:58:00,35.5,31.9,29.73,South,180,2.5,5.8,87,0.00,,,0.00,WUHU216HW,2013-01-23 01:58:00,
2013-01-22 18:03:00,35.5,31.9,29.72,SE,135,2.5,4.7,87,0.00,,,0.00,WUHU216HW,2013-01-23 02:03:00,
2013-01-22 18:08:00,35.3,31.7,29.72,SSE,158,2.5,4.3,87,0.00,,,0.00,WUHU216HW,2013-01-23 02:08:00,
2013-01-22 18:13:00,35.1,31.9,29.72,SSW,203,1.8,4.3,88,0.00,,,0.00,WUHU216HW,2013-01-23 02:13:00,
2013-01-22 18:18:00,34.9,31.7,29.72,SSW,203,2.2,2.7,88,0.00,,,0.00,WUHU216HW,2013-01-23 02:18:00,
2013-01-22 18:23:00,34.7,31.5,29.72,SSW,203,1.8,2.5,88,0.00,,,0.00,WUHU216HW,2013-01-23 02:23:00,
2013-01-22 18:28:00,34.6,31.3,29.72,SSW,203,1.8,2.5,88,0.00,,,0.00,WUHU216HW,2013-01-23 02:28:00,
2013-01-22 18:33:00,34.6,31.6,29.72,SSW,203,1.8,3.4,89,0.00,,,0.00,WUHU216HW,2013-01-23 02:33:00,
2013-01-22 18:38:00,34.6,31.6,29.72,SSE,158,1.8,3.4,89,0.00,,,0.00,WUHU216HW,2013-01-23 02:38:00,
2013-01-22 18:43:00,34.6,31.6,29.72,SSW,203,1.1,3.1,89,0.00,,,0.00,WUHU216HW,2013-01-23 02:43:00,
2013-01-22 18:48:00,34.4,31.4,29.72,SSW,203,3.4,3.4,89,0.00,,,0.00,WUHU216HW,2013-01-23 02:48:00,
2013-01-22 18:53:00,34.4,31.4,29.72,SSW,203,3.1,3.4,89,0.00,,,0.00,WUHU216HW,2013-01-23 02:53:00,
2013-01-22 18:58:00,34.4,31.4,29.72,SSW,203,1.8,3.4,89,0.00,,,0.00,WUHU216HW,2013-01-23 02:58:00,
2013-01-22 19:03:00,34.2,31.2,29.72,East,90,1.1,3.1,89,0.00,,,0.00,WUHU216HW,2013-01-23 03:03:00,
2013-01-22 19:08:00,34.2,31.2,29.72,ESE,113,1.8,2.0,89,0.00,,,0.00,WUHU216HW,2013-01-23 03:08:00,
2013-01-22 19:13:00,34.2,31.2,29.71,South,180,0.2,1.8,89,0.00,,,0.00,WUHU216HW,2013-01-23 03:13:00,
2013-01-22 19:18:00,34.0,31.1,29.71,SE,135,1.1,1.8,89,0.00,,,0.00,WUHU216HW,2013-01-23 03:18:00,
2013-01-22 19:23:00,34.0,31.1,29.71,SE,135,0.4,1.8,89,0.00,,,0.00,WUHU216HW,2013-01-23 03:23:00,
2013-01-22 19:28:00,33.8,31.1,29.71,ESE,113,1.1,1.8,90,0.00,,,0.00,WUHU216HW,2013-01-23 03:28:00,
2013-01-22 19:33:00,33.8,31.1,29.71,ESE,113,0.0,1.8,90,0.00,,,0.00,WUHU216HW,2013-01-23 03:33:00,
2013-01-22 19:38:00,33.8,31.1,29.71,NW,315,0.0,1.1,90,0.00,,,0.00,WUHU216HW,2013-01-23 03:38:00,
2013-01-22 19:43:00,33.7,31.0,29.71,SE,135,0.0,0.0,90,0.00,,,0.00,WUHU216HW,2013-01-23 03:43:00,
2013-01-22 19:48:00,33.7,31.0,29.71,NW,315,0.0,0.0,90,0.00,,,0.00,WUHU216HW,2013-01-23 03:48:00,
2013-01-22 19:53:00,33.5,31.1,29.71,NNE,23,0.9,1.1,91,0.00,,,0.00,WUHU216HW,2013-01-23 03:53:00,
2013-01-22 19:58:00,33.5,31.1,29.71,ESE,113,0.0,1.1,91,0.00,,,0.00,WUHU216HW,2013-01-23 03:58:00,
2013-01-22 20:03:00,33.5,31.1,29.71,SW,225,0.4,1.1,91,0.00,,,0.00,WUHU216HW,2013-01-23 04:03:00,
2013-01-22 20:08:00,33.5,31.1,29.71,WSW,248,0.7,1.1,91,0.00,,,0.00,WUHU216HW,2013-01-23 04:08:00,
2013-01-22 20:13:00,33.5,31.1,29.71,West,270,0.7,1.1,91,0.00,,,0.00,WUHU216HW,2013-01-23 04:13:00,
2013-01-22 20:18:00,33.5,31.1,29.71,ESE,113,0.0,0.7,91,0.00,,,0.00,WUHU216HW,2013-01-23 04:18:00,
2013-01-22 20:23:00,33.3,31.0,29.71,NNE,23,0.0,0.7,91,0.00,,,0.00,WUHU216HW,2013-01-23 04:23:00,
2013-01-22 20:28:00,33.3,31.0,29.71,North,0,0.0,0.0,91,0.00,,,0.00,WUHU216HW,2013-01-23 04:28:00,
2013-01-22 20:33:00,33.5,31.1,29.71,South,180,1.3,1.3,91,0.00,,,0.00,WUHU216HW,2013-01-23 04:33:00,
2013-01-22 20:38:00,33.5,31.1,29.71,SSE,158,1.3,1.6,91,0.00,,,0.00,WUHU216HW,2013-01-23 04:38:00,
2013-01-22 20:43:00,33.5,31.1,29.71,SE,135,0.4,1.6,91,0.00,,,0.00,WUHU216HW,2013-01-23 04:43:00,
2013-01-22 20:48:00,33.5,31.1,29.71,SSE,158,1.1,1.3,91,0.00,,,0.00,WUHU216HW,2013-01-23 04:48:00,
2013-01-22 20:53:00,33.5,31.3,29.71,SE,135,1.3,1.3,92,0.00,,,0.00,WUHU216HW,2013-01-23 04:53:00,
2013-01-22 20:58:00,33.5,31.3,29.71,SE,135,1.8,2.5,92,0.00,,,0.00,WUHU216HW,2013-01-23 04:58:00,
2013-01-22 21:02:00,33.5,31.3,29.70,SE,135,0.4,2.5,92,0.00,,,0.00,WUHU216HW,2013-01-23 05:02:00,
2013-01-22 21:03:00,33.5,31.3,29.70,South,180,1.6,2.5,92,0.00,,,0.00,WUHU216HW,2013-01-23 05:03:00,
2013-01-22 21:08:00,33.5,31.3,29.70,SSE,158,0.4,2.0,92,0.00,,,0.00,WUHU216HW,2013-01-23 05:08:00,
2013-01-22 21:13:00,33.5,31.3,29.70,SSE,158,0.7,1.8,92,0.00,,,0.00,WUHU216HW,2013-01-23 05:13:00,
2013-01-22 21:18:00,33.5,31.3,29.70,SE,135,1.8,1.8,92,0.00,,,0.00,WUHU216HW,2013-01-23 05:18:00,
2013-01-22 21:23:00,33.5,31.3,29.70,SE,135,2.9,2.9,92,0.00,,,0.00,WUHU216HW,2013-01-23 05:23:00,
2013-01-22 21:28:00,33.5,31.3,29.70,SSE,158,2.7,3.1,92,0.00,,,0.00,WUHU216HW,2013-01-23 05:28:00,
2013-01-22 21:33:00,33.5,31.3,29.70,SSE,158,1.3,3.1,92,0.00,,,0.00,WUHU216HW,2013-01-23 05:33:00,
2013-01-22 21:38:00,33.5,31.3,29.70,South,180,1.3,2.7,92,0.00,,,0.00,WUHU216HW,2013-01-23 05:38:00,
2013-01-22 21:43:00,33.5,31.3,29.70,SSW,203,1.1,2.5,92,0.00,,,0.00,WUHU216HW,2013-01-23 05:43:00,
2013-01-22 21:48:00,33.7,31.5,29.70,SW,225,0.0,2.0,92,0.00,,,0.00,WUHU216HW,2013-01-23 05:48:00,
2013-01-22 21:53:00,33.7,31.5,29.71,ESE,113,0.0,1.3,92,0.00,,,0.00,WUHU216HW,2013-01-23 05:53:00,
2013-01-22 21:58:00,33.7,31.5,29.71,ESE,113,0.2,0.4,92,0.00,,,0.00,WUHU216HW,2013-01-23 05:58:00,
2013-01-22 22:03:00,33.7,31.5,29.70,NNW,338,0.0,0.7,92,0.00,,,0.00,WUHU216HW,2013-01-23 06:03:00,
2013-01-22 22:08:00,33.5,31.3,29.70,SSW,203,0.4,0.7,92,0.00,,,0.00,WUHU216HW,2013-01-23 06:08:00,
2013-01-22 22:13:00,33.7,31.5,29.71,SSW,203,0.0,0.9,92,0.00,,,0.00,WUHU216HW,2013-01-23 06:13:00,
2013-01-22 22:18:00,33.7,31.5,29.71,NW,315,0.4,0.9,92,0.00,,,0.00,WUHU216HW,2013-01-23 06:18:00,
2013-01-22 22:23:00,33.7,31.5,29.71,NNW,338,0.7,0.7,92,0.00,,,0.00,WUHU216HW,2013-01-23 06:23:00,
2013-01-22 22:28:00,33.5,31.3,29.71,NNW,338,0.9,2.0,92,0.00,,,0.00,WUHU216HW,2013-01-23 06:28:00,
2013-01-22 22:33:00,33.5,31.3,29.71,NW,315,0.4,2.0,92,0.00,,,0.00,WUHU216HW,2013-01-23 06:33:00,
2013-01-22 22:38:00,33.5,31.6,29.71,WNW,293,1.1,1.6,93,0.00,,,0.00,WUHU216HW,2013-01-23 06:38:00,
2013-01-22 22:43:00,33.5,31.3,29.71,NW,315,0.9,1.6,92,0.00,,,0.00,WUHU216HW,2013-01-23 06:43:00,
2013-01-22 22:48:00,33.5,31.3,29.71,NNW,338,0.4,1.1,92,0.00,,,0.00,WUHU216HW,2013-01-23 06:48:00,
2013-01-22 22:53:00,33.5,31.3,29.71,NNW,338,0.0,0.9,92,0.00,,,0.00,WUHU216HW,2013-01-23 06:53:00,
2013-01-22 22:58:00,33.7,31.5,29.70,West,270,0.7,0.7,92,0.00,,,0.00,WUHU216HW,2013-01-23 06:58:00,
2013-01-22 23:03:00,33.5,31.3,29.71,WNW,293,0.4,1.1,92,0.00,,,0.00,WUHU216HW,2013-01-23 07:03:00,
2013-01-22 23:08:00,33.5,31.6,29.71,NNW,338,0.0,1.1,93,0.00,,,0.00,WUHU216HW,2013-01-23 07:08:00,
2013-01-22 23:13:00,33.5,31.6,29.71,North,0,0.0,0.7,93,0.00,,,0.00,WUHU216HW,2013-01-23 07:13:00,
2013-01-22 23:18:00,33.5,31.3,29.71,NW,315,0.0,0.0,92,0.00,,,0.00,WUHU216HW,2013-01-23 07:18:00,
2013-01-22 23:23:00,33.7,31.5,29.71,WSW,248,0.4,0.4,92,0.00,,,0.00,WUHU216HW,2013-01-23 07:23:00,
2013-01-22 23:28:00,33.7,31.5,29.71,SSE,158,0.0,0.7,92,0.00,,,0.00,WUHU216HW,2013-01-23 07:28:00,
2013-01-22 23:33:00,33.7,31.5,29.71,ESE,113,0.4,1.3,92,0.00,,,0.00,WUHU216HW,2013-01-23 07:33:00,
2013-01-22 23:38:00,33.7,31.8,29.71,SE,135,2.5,2.5,93,0.00,,,0.00,WUHU216HW,2013-01-23 07:38:00,
2013-01-22 23:43:00,33.5,31.6,29.72,North,0,0.2,5.4,93,0.00,,,0.00,WUHU216HW,2013-01-23 07:43:00,
2013-01-22 23:49:00,33.5,31.3,29.71,SW,225,0.9,5.4,92,0.00,,,0.00,WUHU216HW,2013-01-23 07:49:00,
2013-01-22 23:54:00,33.5,31.3,29.70,NNE,23,0.4,1.3,92,0.00,,,0.00,WUHU216HW,2013-01-23 07:54:00,
2013-01-22 23:59:00,33.5,31.3,29.71,SSE,158,6.3,6.3,92,0.00,,,0.00,WUHU216HW,2013-01-23 07:59:00,